OK2CME-6 Weather Reports


time (UTC)temp
C
wind
direction
speed
KPH
gust
KPH
rain 1hr
cm
rain 24hr
cm
rain mn
cm
humidity
%
barometer
mb
20260503052817 11 149 9.7 24.1 0.00 0.00 0.00 57 1022.6
20260503050817 11 165 9.7 20.9 0.00 0.00 0.00 58 1022.7
20260503044817 10 126 6.4 14.5 0.00 0.00 0.00 61 1022.7
20260503042817 10 116 6.4 16.1 0.00 0.00 0.00 62 1022.6
20260503040817 9 127 6.4 14.5 0.00 0.00 0.00 62 1022.6
20260503034817 9 89 4.8 12.9 0.00 0.00 0.00 61 1022.5
20260503032817 10 74 3.2 9.7 0.00 0.00 0.00 58 1022.5
20260503030817 10 57 1.6 6.4 0.00 0.00 0.00 57 1022.6
20260503024817 10 57 3.2 9.7 0.00 0.00 0.00 54 1022.4
20260503022817 11 47 3.2 6.4 0.00 0.00 0.00 51 1022.3
20260503020817 12 24 1.6 9.7 0.00 0.00 0.00 47 1022.5
20260503014817 12 18 1.6 6.4 0.00 0.00 0.00 46 1022.2
20260503012817 12 46 3.2 6.4 0.00 0.00 0.00 48 1022.5
20260503010817 12 45 3.2 4.8 0.00 0.00 0.00 48 1022.4
20260503004817 12 43 3.2 4.8 0.00 0.00 0.00 50 1022.6
20260503002817 12 31 1.6 4.8 0.00 0.00 0.00 50 1022.6
20260503000817 13 40 3.2 6.4 0.00 0.00 0.00 45 1022.9
20260502234817 13 54 4.8 9.7 0.00 0.00 0.00 45 1022.6
20260502232817 13 57 4.8 9.7 0.00 0.00 0.00 46 1023.0
20260502230817 13 47 3.2 6.4 0.00 0.00 0.00 47 1023.1
20260502224817 13 39 3.2 6.4 0.00 0.00 0.00 48 1023.3
20260502222817 14 49 3.2 6.4 0.00 0.00 0.00 45 1023.2
20260502220817 15 48 3.2 6.4 0.00 0.00 0.00 44 1023.3
20260502214817 15 43 4.8 9.7 0.00 0.00 0.00 45 1023.5
20260502212817 15 46 4.8 9.7 0.00 0.00 0.00 45 1023.7
20260502210817 14 44 4.8 9.7 0.00 0.00 0.00 46 1024.0
20260502204817 15 33 3.2 9.7 0.00 0.00 0.00 44 1023.9
20260502202817 14 51 4.8 9.7 0.00 0.00 0.00 44 1023.9
20260502200817 15 45 4.8 9.7 0.00 0.00 0.00 44 1024.0
20260502194817 15 38 3.2 6.4 0.00 0.00 0.00 43 1024.0
20260502192817 15 30 3.2 6.4 0.00 0.00 0.00 46 1024.0
20260502190817 16 18 3.2 6.4 0.00 0.00 0.00 44 1023.9